• en France
  • Liste des pays
  • À 7 jours
  • Température de l'eau
  • Carte satellitaire
  • Carte météo
  • Widgets météo
  • user-avatar
    Se connecter

    Météo par heure à Molevo

    Ce jour, 16 Octobre, Mardi

    Heure Température Précipitation Vent Pression Humidité
    00:00 +8°C° 0 mm 2 m/s 751 mmHg 72%
    01:00 +8°C° 0 mm 2 m/s 751 mmHg 73%
    02:00 +6°C° 0 mm 2 m/s 751 mmHg 74%
    03:00 +6°C° 0 mm 2 m/s 751 mmHg 74%
    04:00 +6°C° 0 mm 2 m/s 751 mmHg 74%
    05:00 +6°C° 0 mm 2 m/s 751 mmHg 75%
    06:00 +7°C° 0 mm 2 m/s 751 mmHg 73%
    07:00 +7°C° 0 mm 2 m/s 751 mmHg 72%
    08:00 +8°C° 0 mm 2 m/s 751 mmHg 69%
    09:00 +10°C° 0 mm 3 m/s 751 mmHg 65%
    10:00 +11°C° 0 mm 3 m/s 751 mmHg 61%
    11:00 +13°C° 0 mm 3 m/s 751 mmHg 56%
    12:00 +14°C° 0 mm 3 m/s 751 mmHg 56%
    13:00 +16°C° 0 mm 3 m/s 751 mmHg 55%
    14:00 +16°C° 0 mm 3 m/s 750 mmHg 55%
    15:00 +14°C° 0 mm 3 m/s 750 mmHg 61%
    16:00 +13°C° 0 mm 3 m/s 750 mmHg 68%
    17:00 +12°C° 0 mm 2 m/s 750 mmHg 74%
    18:00 +12°C° 0 mm 2 m/s 750 mmHg 77%
    19:00 +10°C° 0 mm 2 m/s 750 mmHg 79%
    20:00 +10°C° 0 mm 2 m/s 750 mmHg 82%
    21:00 +10°C° 0 mm 2 m/s 750 mmHg 83%
    22:00 +9°C° 0 mm 2 m/s 750 mmHg 85%
    23:00 +9°C° 0 mm 2 m/s 750 mmHg 87%

    Demain, 17 Octobre, Mercredi

    Heure Température Précipitation Vent Pression Humidité
    00:00 +9°C° 0 mm 2 m/s 750 mmHg 87%
    01:00 +9°C° 0 mm 2 m/s 750 mmHg 88%
    02:00 +9°C° 0 mm 2 m/s 750 mmHg 89%
    03:00 +8°C° 0 mm 2 m/s 750 mmHg 89%
    04:00 +8°C° 0 mm 2 m/s 750 mmHg 90%
    05:00 +9°C° 0 mm 1 m/s 750 mmHg 90%
    06:00 +9°C° 0 mm 1 m/s 750 mmHg 89%
    07:00 +10°C° 0 mm 1 m/s 750 mmHg 87%
    08:00 +10°C° 0 mm 1 m/s 750 mmHg 86%
    09:00 +12°C° 0 mm 2 m/s 750 mmHg 79%
    10:00 +14°C° 0 mm 2 m/s 750 mmHg 73%
    11:00 +15°C° 0 mm 2 m/s 750 mmHg 66%
    12:00 +16°C° 0 mm 2 m/s 750 mmHg 65%
    13:00 +17°C° 0 mm 2 m/s 750 mmHg 63%
    14:00 +17°C° 0 mm 2 m/s 750 mmHg 61%
    15:00 +16°C° 0 mm 2 m/s 750 mmHg 67%
    16:00 +15°C° 0 mm 1 m/s 750 mmHg 74%
    17:00 +13°C° 0 mm 1 m/s 749 mmHg 81%
    18:00 +13°C° 0 mm 1 m/s 750 mmHg 82%
    19:00 +12°C° 0 mm 1 m/s 750 mmHg 84%
    20:00 +12°C° 0 mm 1 m/s 750 mmHg 86%
    21:00 +10°C° 0 mm 2 m/s 750 mmHg 86%
    22:00 +10°C° 0 mm 2 m/s 750 mmHg 87%
    23:00 +10°C° 0 mm 2 m/s 750 mmHg 87%

    Après-demain, 18 Octobre, Jeudi

    Heure Température Précipitation Vent Pression Humidité
    00:00 +10°C° 0 mm 2 m/s 750 mmHg 88%
    01:00 +10°C° 0 mm 2 m/s 750 mmHg 89%
    02:00 +9°C° 0 mm 2 m/s 749 mmHg 89%
    03:00 +9°C° 0 mm 2 m/s 749 mmHg 90%
    04:00 +9°C° 0 mm 2 m/s 749 mmHg 90%
    05:00 +9°C° 0 mm 2 m/s 749 mmHg 91%
    06:00 +9°C° 0 mm 2 m/s 749 mmHg 90%
    07:00 +10°C° 0 mm 2 m/s 749 mmHg 89%
    08:00 +10°C° 0 mm 2 m/s 749 mmHg 88%
    09:00 +13°C° 0 mm 2 m/s 748 mmHg 83%
    10:00 +14°C° 0 mm 2 m/s 748 mmHg 77%
    11:00 +16°C° 0 mm 2 m/s 748 mmHg 71%
    12:00 +17°C° 0 mm 2 m/s 748 mmHg 70%
    13:00 +18°C° 0 mm 3 m/s 748 mmHg 68%
    14:00 +18°C° 0 mm 3 m/s 747 mmHg 67%
    15:00 +17°C° 0 mm 2 m/s 747 mmHg 73%
    16:00 +16°C° 0 mm 2 m/s 746 mmHg 79%
    17:00 +14°C° 0 mm 2 m/s 746 mmHg 86%
    18:00 +14°C° 0 mm 2 m/s 746 mmHg 87%
    19:00 +13°C° 0 mm 2 m/s 746 mmHg 89%
    20:00 +13°C° 0 mm 2 m/s 746 mmHg 91%
    21:00 +12°C° 0 mm 2 m/s 746 mmHg 91%
    22:00 +12°C° 0 mm 2 m/s 745 mmHg 92%
    23:00 +12°C° 0 mm 2 m/s 745 mmHg 92%

    19 Octobre, Vendredi

    Heure Température Précipitation Vent Pression Humidité
    00:00 +12°C° 0 mm 2 m/s 745 mmHg 92%
    01:00 +10°C° 0 mm 2 m/s 745 mmHg 93%
    02:00 +10°C° 0 mm 2 m/s 745 mmHg 93%
    03:00 +10°C° 0 mm 2 m/s 744 mmHg 93%
    04:00 +9°C° 0 mm 2 m/s 744 mmHg 93%
    05:00 +9°C° 0 mm 2 m/s 744 mmHg 94%
    06:00 +10°C° 0 mm 1 m/s 744 mmHg 93%
    07:00 +10°C° 0 mm 1 m/s 744 mmHg 92%
    08:00 +11°C° 0 mm 1 m/s 744 mmHg 91%
    09:00 +12°C° 0 mm 1 m/s 744 mmHg 85%
    10:00 +13°C° 0 mm 2 m/s 744 mmHg 79%
    11:00 +15°C° 0 mm 2 m/s 744 mmHg 74%
    12:00 +15°C° 0 mm 2 m/s 744 mmHg 72%
    13:00 +16°C° 0 mm 2 m/s 744 mmHg 71%
    14:00 +16°C° 0 mm 2 m/s 744 mmHg 70%
    15:00 +15°C° 0 mm 2 m/s 744 mmHg 76%
    16:00 +14°C° 0 mm 2 m/s 744 mmHg 82%
    17:00 +12°C° 0 mm 2 m/s 744 mmHg 88%
    18:00 +12°C° 0 mm 2 m/s 744 mmHg 89%
    19:00 +10°C° 0 mm 2 m/s 744 mmHg 90%
    20:00 +10°C° 0 mm 3 m/s 745 mmHg 91%
    21:00 +9°C° 0 mm 3 m/s 745 mmHg 92%
    22:00 +9°C° 0 mm 2 m/s 745 mmHg 93%
    23:00 +8°C° 0 mm 2 m/s 745 mmHg 94%

    20 Octobre, Samedi

    Heure Température Précipitation Vent Pression Humidité
    00:00 +7°C° 0 mm 2 m/s 745 mmHg 93%
    01:00 +7°C° 0 mm 2 m/s 745 mmHg 93%
    02:00 +6°C° 0 mm 2 m/s 746 mmHg 93%
    03:00 +6°C° 0 mm 2 m/s 746 mmHg 93%
    04:00 +5°C° 0 mm 2 m/s 746 mmHg 92%
    05:00 +5°C° 0 mm 2 m/s 746 mmHg 92%
    06:00 +5°C° 0 mm 2 m/s 746 mmHg 90%
    07:00 +5°C° 0 mm 2 m/s 746 mmHg 88%
    08:00 +5°C° 0 mm 2 m/s 746 mmHg 86%
    09:00 +6°C° 0 mm 2 m/s 746 mmHg 79%
    10:00 +8°C° 0 mm 2 m/s 747 mmHg 73%
    11:00 +9°C° 0 mm 2 m/s 747 mmHg 66%
    12:00 +9°C° 0 mm 2 m/s 747 mmHg 63%
    13:00 +10°C° 0 mm 2 m/s 746 mmHg 61%
    14:00 +10°C° 0 mm 2 m/s 746 mmHg 59%
    15:00 +9°C° 0 mm 2 m/s 746 mmHg 64%
    16:00 +8°C° 0 mm 2 m/s 746 mmHg 70%
    17:00 +7°C° 0 mm 2 m/s 746 mmHg 75%
    18:00 +6°C° 0 mm 2 m/s 746 mmHg 78%
    19:00 +5°C° 0 mm 2 m/s 746 mmHg 80%
    20:00 +5°C° 0 mm 2 m/s 747 mmHg 83%
    21:00 +4°C° 0 mm 2 m/s 747 mmHg 85%
    22:00 +4°C° 0 mm 2 m/s 747 mmHg 87%
    23:00 +5°C° 0 mm 1 m/s 747 mmHg 88%

    21 Octobre, Dimanche

    Heure Température Précipitation Vent Pression Humidité
    00:00 +4°C° 0 mm 1 m/s 747 mmHg 89%
    01:00 +4°C° 0 mm 1 m/s 747 mmHg 90%
    02:00 +4°C° 0 mm 1 m/s 747 mmHg 91%
    03:00 +4°C° 0 mm 1 m/s 747 mmHg 92%
    04:00 +3°C° 0 mm 1 m/s 747 mmHg 93%
    05:00 +3°C° 0 mm 1 m/s 747 mmHg 93%
    06:00 +3°C° 0 mm 1 m/s 747 mmHg 92%
    07:00 +4°C° 0 mm 1 m/s 747 mmHg 91%
    08:00 +4°C° 0 mm 1 m/s 747 mmHg 90%
    09:00 +5°C° 0 mm 1 m/s 747 mmHg 84%
    10:00 +7°C° 0 mm 1 m/s 748 mmHg 77%
    11:00 +7°C° 0 mm 2 m/s 748 mmHg 70%
    12:00 +8°C° 0 mm 2 m/s 748 mmHg 68%
    13:00 +8°C° 0 mm 2 m/s 747 mmHg 65%
    14:00 +8°C° 0 mm 2 m/s 747 mmHg 63%
    15:00 +7°C° 0 mm 2 m/s 747 mmHg 69%
    16:00 +6°C° 0 mm 2 m/s 747 mmHg 74%
    17:00 +6°C° 0 mm 1 m/s 747 mmHg 80%
    18:00 +5°C° 0 mm 1 m/s 747 mmHg 82%
    19:00 +5°C° 0 mm 1 m/s 747 mmHg 85%
    20:00 +4°C° 0 mm 1 m/s 748 mmHg 88%
    21:00 +4°C° 0 mm 1 m/s 748 mmHg 89%
    22:00 +4°C° 0 mm 1 m/s 747 mmHg 90%
    23:00 +3°C° 0 mm 1 m/s 747 mmHg 91%
    Voir plus